IRIDIUM 33 DEB, 35680

Orbit data source: Space-Track

IRIDIUM 33 DEB, 35680 is space debris in LEO originally from a launch on Sun, 14 Sep 1997 UTC launched from the Tyuratam Missile And Space Complex (TTMTR). The debris from Iridium 33, an American commercial communications satellite, has been tracked extensively since its accidental collision with the defunct Russian satellite Cosmos 2251 in 2009. This event, occurring at high speed in low Earth orbit (LEO), generated thousands of pieces of space debris, significantly increasing the risk of further collisions. The Iridium 33 debris cloud has impacted space traffic management and orbital debris mitigation strategies, making it a subject of ongoing study in space situational awareness.

Loading next visibility...
Identifier
35680, 1997-051RJ
Orbit
LEO
Country
Flag of USUS
Related business
Manufacturer
Unknown
Mission
Spacecraft
Bus & Motor
Unknown
Mass
Unknown
Launch date (UTC)
1997-09-14 (29 years ago)
Launch vehicle
Unknown
Launch site
Tyuratam Missile And Space Complex (TTMTR)
Object type
Payload
Rocket body
Debris
Shape & HBR
Unknown shape, 0.1 m
Radar Cross Section
Small (<0.1 m²)

Expand to show TLE details & history
Last TLE update: 2 days ago

TLE from 2 days ago
0 IRIDIUM 33 DEB
1 35680U 97051RJ  26207.48201358  .00001953  00000-0  76829-3 0  9995
2 35680  86.1029 281.3610 0144597 279.8482  91.3424 14.23273959639108
Epoch: 2026-07-26T11:34Z
TLE epoch observation values (Epoch: 2026-07-26T11:34:05.973Z)
Latitude
12.77613°
Longitude
164.5372°
Altitude
820.518 km
Speed
7.442 km/s
True Right ascension
18h 48m 57s
True Declination
12° 42' 10"
Sunlit
Object was in full shadow at epoch
Visualization orbit readout
Latitude
Unknown
Longitude
Unknown
Altitude
Unknown
Speed
Unknown
Apparent Right ascension
Unknown
Apparent Declination
Unknown
Sunlit
N/A
Visualization observer readout
Local Sidereal Time
22:02:29
Azimuth
Unknown
Elevation
Unknown
Doppler factor
Unknown
Orbital elements
Apogee altitude
915.244 km
Perigee altitude
707.33 km
Semi-major axis
7,189.424 km
Eccentricity
0.01446
Inclination
86.1029°
RAAN
281.361°
Arg. of periapsis
279.8482°
True anomaly
92.99797°
Mean anomaly
91.3424°
Eccentric anomaly
92.17029°
Mean motion
3.56043 °/min
Orbital period
101.11 mins
BSTAR
0.00076829
Loading maneuver chart data...
Computing Atmospheric mass density...

Documentation

Showing up to 5 results
|